User: anonymous   Login
Location: Unspecified
(0.0000°N, 0.0000°E)
Time: 18:05:04
(UTC+00:00)
Language:

STARLINK-34725 - Orbit

View from above orbital plane
View from above orbital plane
View from above satellite
View from above satellite

Ground track
Ground track

The orbit is defined by the following mean orbital elements,

1 64843U          26145.10308145 +.00000000 +00000-0 +24707-3 0 00001
2 64843  97.4520   0.4259 0002203  82.8156 277.3322 15.05658805    00
Epoch (UTC): 25 May 2026 02:28:26
Eccentricity: 0.0002203
inclination: 97.4520°
perigee height: 548 km
apogee height: 551 km
right ascension of ascending node: 0.4259°
argument of perigee: 82.8156°
revolutions per day: 15.05658805
mean anomaly at epoch: 277.3322°

The dashed part of the orbit path shows where the satellite is in the earth's shadow,  

DLR